Weather in Roznava

Slovakia     48°39′44″N   20°31′57″E
temp.,
°C
wind,
m/s
gust,
m/s
humid.,
%
clouds,
%
prec.,
mm/h
press.,
hPa
HPBL,
m
14 may, fri
fri1423:00+9s2699100 0.3 1002544
02:00+9s2499100 0.9 1002369
05:00+8s2499100 1.1 1002311
08:00+7s23100100 2.9 1004349
11:00+7s1299100 0.8 1005212
14:00+7s2298100 1.4 1006226
17:00+8ssw1197100 0.1 1007266
20:00+8se009672 0.1 100821
15 may, sat
sat1523:00+7s119784 0.0 101043
02:00+7wsw1197100 0.0 101026
05:00+7nne0097100 0.0 101013
08:00+10se118669 0.0 1011390
11:00+12s227693 0.3 1011887
14:00+13s3367100 0.4 10101091
17:00+14s3367100 0.1 1009983
20:00+9s1197100 0.3 101030
16 may, sun
sun1623:00+8s119877 0.1 100921
02:00+7se1198100 0.2 100916
05:00+9sse1299100 0.6 100852
08:00+9s24100100 2.9 1008254
11:00+10s2495100 3.4 1008438
14:00+10ssw25100100 6.5 1007427
17:00+10ssw229495 0.7 1007410
20:00+9nnw129760 0.9 100866
17 may, mon
mon1723:00+5nnw11960 0.0 101012
02:00+4nnw11933 0.0 101111
05:00+4nw11931 0.0 101111
08:00+10s128015 0.0 1011276
11:00+13ssw356597 0.1 10101165
14:00+12ssw3587100 1.8 1010627
17:00+9s2298100 3.5 1011158
20:00+8s1199100 3.6 101149
18 may, tue
tue1823:00+7ne119788 0.0 101111
02:00+8ene1199100 1.1 101029
05:00+8nne1299100 2.7 1009101
08:00+6n3697100 6.4 1010348
11:00+6nne3797100 1.8 1010563
14:00+6nne2497100 4.1 1010314
17:00+8n2694100 1.6 1010644
20:00+7nw1297100 1.8 101040